When you browse on this site, cookies collect data to enhance your experience and personalize the content and advertising you see.
Visit our Privacy Policy to learn more. By continuing to use the site, you agree to this use of cookies and data.
  • In Romania
  • List of Countries
  • For 7 days
  • Water Temperature
  • Satellite Maps
  • Weather Map
  • Weather Widgets
  • user-avatar
    Login

    Hourly Weather Kunikovo

    Today, 17 July, Wednesday

    Time Temperature Precipitation Wind Pressure Humidity
    00:00 +14°C° 0.2 mm 2 mps 742 mmHg 98%
    01:00 +14°C° 0.2 mm 2 mps 742 mmHg 98%
    02:00 +14°C° 0 mm 2 mps 742 mmHg 99%
    03:00 +14°C° 0.5 mm 2 mps 742 mmHg 99%
    04:00 +15°C° 0.5 mm 2 mps 742 mmHg 98%
    05:00 +15°C° 0.5 mm 2 mps 742 mmHg 98%
    06:00 +14°C° 0.4 mm 3 mps 742 mmHg 98%
    07:00 +14°C° 0.4 mm 3 mps 741 mmHg 97%
    08:00 +14°C° 0 mm 3 mps 742 mmHg 97%
    09:00 +16°C° 0.1 mm 3 mps 742 mmHg 94%
    10:00 +17°C° 0.1 mm 3 mps 742 mmHg 91%
    11:00 +17°C° 0.1 mm 3 mps 742 mmHg 89%
    12:00 +18°C° 0.3 mm 3 mps 741 mmHg 87%
    13:00 +19°C° 0.3 mm 3 mps 741 mmHg 85%
    14:00 +19°C° 0.3 mm 3 mps 741 mmHg 84%
    15:00 +18°C° 0.3 mm 3 mps 741 mmHg 87%
    16:00 +17°C° 0.3 mm 2 mps 741 mmHg 91%
    17:00 +16°C° 0.3 mm 2 mps 741 mmHg 95%
    18:00 +16°C° 0 mm 2 mps 741 mmHg 95%
    19:00 +16°C° 0 mm 1 mps 741 mmHg 95%
    20:00 +16°C° 0 mm 1 mps 741 mmHg 94%
    21:00 +15°C° 0.2 mm 2 mps 741 mmHg 95%
    22:00 +15°C° 0.2 mm 2 mps 741 mmHg 95%
    23:00 +15°C° 0.2 mm 2 mps 741 mmHg 95%

    Tomorrow, 18 July, Thursday

    Time Temperature Precipitation Wind Pressure Humidity
    00:00 +14°C° 0.6 mm 3 mps 740 mmHg 96%
    01:00 +14°C° 0.6 mm 3 mps 740 mmHg 97%
    02:00 +14°C° 0.6 mm 3 mps 740 mmHg 98%
    03:00 +14°C° 0.9 mm 3 mps 739 mmHg 98%
    04:00 +14°C° 0.9 mm 3 mps 739 mmHg 98%
    05:00 +14°C° 0.9 mm 3 mps 738 mmHg 99%
    06:00 +14°C° 1.7 mm 3 mps 738 mmHg 98%
    07:00 +14°C° 1.7 mm 3 mps 738 mmHg 98%
    08:00 +14°C° 1.7 mm 3 mps 738 mmHg 98%
    09:00 +16°C° 0.5 mm 3 mps 738 mmHg 98%
    10:00 +16°C° 0.5 mm 3 mps 737 mmHg 97%
    11:00 +16°C° 0.5 mm 2 mps 737 mmHg 97%
    12:00 +17°C° 0.1 mm 2 mps 737 mmHg 94%
    13:00 +18°C° 0.1 mm 2 mps 737 mmHg 91%
    14:00 +19°C° 0.1 mm 2 mps 737 mmHg 88%
    15:00 +19°C° 0.8 mm 2 mps 737 mmHg 89%
    16:00 +19°C° 0.8 mm 2 mps 737 mmHg 90%
    17:00 +20°C° 0.8 mm 3 mps 737 mmHg 91%
    18:00 +19°C° 0.6 mm 2 mps 737 mmHg 92%
    19:00 +18°C° 0.6 mm 2 mps 736 mmHg 93%
    20:00 +17°C° 0.6 mm 2 mps 736 mmHg 94%
    21:00 +16°C° 0 mm 2 mps 736 mmHg 94%
    22:00 +15°C° 0 mm 2 mps 737 mmHg 95%
    23:00 +14°C° 0 mm 2 mps 737 mmHg 96%

    Day after tomorrow, 19 July, Friday

    Time Temperature Precipitation Wind Pressure Humidity
    00:00 +14°C° 0 mm 2 mps 737 mmHg 96%
    01:00 +13°C° 0 mm 2 mps 737 mmHg 97%
    02:00 +13°C° 0 mm 2 mps 737 mmHg 97%
    03:00 +13°C° 0 mm 2 mps 737 mmHg 97%
    04:00 +13°C° 0 mm 2 mps 737 mmHg 97%
    05:00 +13°C° 0 mm 2 mps 737 mmHg 97%
    06:00 +15°C° 0 mm 2 mps 737 mmHg 93%
    07:00 +16°C° 0 mm 2 mps 737 mmHg 89%
    08:00 +17°C° 0 mm 2 mps 737 mmHg 85%
    09:00 +18°C° 0.3 mm 2 mps 737 mmHg 82%
    10:00 +19°C° 0.3 mm 2 mps 737 mmHg 78%
    11:00 +20°C° 0.3 mm 2 mps 737 mmHg 75%
    12:00 +20°C° 1.4 mm 2 mps 737 mmHg 78%
    13:00 +20°C° 1.4 mm 2 mps 737 mmHg 81%
    14:00 +19°C° 1.4 mm 2 mps 737 mmHg 83%
    15:00 +20°C° 1.2 mm 1 mps 737 mmHg 84%
    16:00 +20°C° 1.2 mm 1 mps 737 mmHg 85%
    17:00 +20°C° 1.2 mm 1 mps 737 mmHg 85%
    18:00 +19°C° 0.7 mm 1 mps 737 mmHg 88%
    19:00 +16°C° 0.7 mm 0 mps 737 mmHg 90%
    20:00 +15°C° 0.7 mm 0 mps 737 mmHg 92%
    21:00 +14°C° 0 mm 0 mps 737 mmHg 93%
    22:00 +13°C° 0 mm 0 mps 738 mmHg 94%
    23:00 +14°C° 0 mm 1 mps 738 mmHg 95%

    20 July, Saturday

    Time Temperature Precipitation Wind Pressure Humidity
    00:00 +13°C° 0 mm 1 mps 738 mmHg 96%
    01:00 +13°C° 0 mm 1 mps 738 mmHg 97%
    02:00 +13°C° 0 mm 1 mps 738 mmHg 97%
    03:00 +13°C° 0 mm 1 mps 739 mmHg 97%
    04:00 +13°C° 0 mm 1 mps 739 mmHg 97%
    05:00 +14°C° 0 mm 1 mps 739 mmHg 98%
    06:00 +15°C° 0 mm 2 mps 740 mmHg 95%
    07:00 +16°C° 0 mm 2 mps 740 mmHg 92%
    08:00 +17°C° 0 mm 2 mps 740 mmHg 89%
    09:00 +17°C° 0.5 mm 2 mps 741 mmHg 89%
    10:00 +17°C° 0.5 mm 2 mps 741 mmHg 89%
    11:00 +18°C° 0.5 mm 2 mps 741 mmHg 89%
    12:00 +18°C° 0.5 mm 2 mps 742 mmHg 89%
    13:00 +17°C° 0.5 mm 2 mps 742 mmHg 90%
    14:00 +17°C° 0.5 mm 2 mps 742 mmHg 90%
    15:00 +18°C° 0.8 mm 2 mps 742 mmHg 89%
    16:00 +18°C° 0.8 mm 2 mps 743 mmHg 87%
    17:00 +19°C° 0.8 mm 2 mps 743 mmHg 86%
    18:00 +18°C° 0.6 mm 2 mps 743 mmHg 89%
    19:00 +17°C° 0.6 mm 2 mps 744 mmHg 92%
    20:00 +16°C° 0.6 mm 1 mps 744 mmHg 94%
    21:00 +15°C° 0 mm 1 mps 744 mmHg 95%
    22:00 +14°C° 0 mm 2 mps 744 mmHg 96%
    23:00 +14°C° 0 mm 2 mps 745 mmHg 97%

    21 July, Sunday

    Time Temperature Precipitation Wind Pressure Humidity
    00:00 +13°C° 0 mm 2 mps 745 mmHg 97%
    01:00 +13°C° 0 mm 2 mps 745 mmHg 97%
    02:00 +12°C° 0 mm 2 mps 745 mmHg 98%
    03:00 +12°C° 0 mm 2 mps 746 mmHg 97%
    04:00 +12°C° 0 mm 2 mps 746 mmHg 96%
    05:00 +12°C° 0 mm 2 mps 746 mmHg 95%
    06:00 +13°C° 0 mm 2 mps 746 mmHg 91%
    07:00 +14°C° 0 mm 2 mps 746 mmHg 87%
    08:00 +14°C° 0 mm 3 mps 746 mmHg 84%
    09:00 +16°C° 0 mm 3 mps 747 mmHg 78%
    10:00 +16°C° 0 mm 3 mps 747 mmHg 71%
    11:00 +17°C° 0 mm 3 mps 747 mmHg 65%
    12:00 +18°C° 0 mm 3 mps 747 mmHg 64%
    13:00 +18°C° 0 mm 3 mps 747 mmHg 63%
    14:00 +18°C° 0 mm 3 mps 747 mmHg 62%
    15:00 +17°C° 0 mm 3 mps 747 mmHg 67%
    16:00 +17°C° 0 mm 3 mps 747 mmHg 71%
    17:00 +16°C° 0 mm 2 mps 747 mmHg 75%
    18:00 +15°C° 0 mm 2 mps 747 mmHg 77%
    19:00 +15°C° 0 mm 2 mps 747 mmHg 80%
    20:00 +14°C° 0 mm 2 mps 747 mmHg 82%
    21:00 +14°C° 0 mm 2 mps 748 mmHg 83%
    22:00 +14°C° 0 mm 2 mps 748 mmHg 84%
    23:00 +13°C° 0 mm 2 mps 748 mmHg 86%

    22 July, Monday

    Time Temperature Precipitation Wind Pressure Humidity
    00:00 +13°C° 0 mm 2 mps 748 mmHg 85%
    01:00 +13°C° 0 mm 2 mps 748 mmHg 85%
    02:00 +13°C° 0 mm 2 mps 748 mmHg 85%
    03:00 +13°C° 0 mm 2 mps 748 mmHg 83%
    04:00 +13°C° 0 mm 2 mps 748 mmHg 81%
    05:00 +13°C° 0 mm 2 mps 748 mmHg 80%
    06:00 +14°C° 0 mm 2 mps 748 mmHg 75%
    07:00 +16°C° 0 mm 2 mps 748 mmHg 71%
    08:00 +17°C° 0 mm 2 mps 748 mmHg 67%
    09:00 +19°C° 0 mm 3 mps 748 mmHg 61%
    10:00 +20°C° 0 mm 3 mps 748 mmHg 55%
    11:00 +21°C° 0 mm 3 mps 748 mmHg 49%
    12:00 +22°C° 0 mm 3 mps 748 mmHg 47%
    13:00 +22°C° 0 mm 3 mps 748 mmHg 45%
    14:00 +22°C° 0 mm 3 mps 748 mmHg 42%
    15:00 +22°C° 0 mm 3 mps 748 mmHg 46%
    16:00 +21°C° 0 mm 3 mps 748 mmHg 49%
    17:00 +21°C° 0 mm 2 mps 748 mmHg 52%
    18:00 +19°C° 0 mm 2 mps 748 mmHg 57%
    19:00 +17°C° 0 mm 2 mps 748 mmHg 62%
    20:00 +14°C° 0 mm 2 mps 748 mmHg 68%
    21:00 +14°C° 0 mm 2 mps 748 mmHg 68%
    22:00 +13°C° 0 mm 2 mps 748 mmHg 68%
    23:00 +12°C° 0 mm 2 mps 748 mmHg 68%
    Show more